Time,TemperatureF,DewpointF,PressureIn,WindDirection,WindDirectionDegrees,WindSpeedMPH,WindSpeedGustMPH,Humidity,HourlyPrecipIn,Conditions,Clouds,dailyrainin,SoftwareType,DateUTC
2013-11-20 00:12:00,77.0,73.0,29.89,NNW,327,0.0,0.0,88,0.00,,,0.10,,2013-11-20 05:12:00,
2013-11-20 00:22:00,76.0,72.0,29.89,NNW,327,0.0,0.0,88,0.00,,,0.10,,2013-11-20 05:22:00,
2013-11-20 00:43:00,76.0,73.0,29.89,NNW,327,0.0,0.0,89,0.00,,,0.10,,2013-11-20 05:43:00,
2013-11-20 00:53:00,76.0,73.0,29.88,NNW,327,0.0,0.0,89,0.00,,,0.10,,2013-11-20 05:53:00,
2013-11-20 01:12:00,76.0,73.0,29.88,NNW,327,0.0,0.0,89,0.00,,,0.10,,2013-11-20 06:12:00,
2013-11-20 01:22:00,76.0,73.0,29.88,NNW,327,0.0,0.0,89,0.00,,,0.10,,2013-11-20 06:22:00,
2013-11-20 01:42:00,76.0,73.0,29.87,NNW,327,0.0,0.0,90,0.00,,,0.10,,2013-11-20 06:42:00,
2013-11-20 01:52:00,76.0,73.0,29.87,NNW,327,0.0,0.0,90,0.00,,,0.10,,2013-11-20 06:52:00,
2013-11-20 02:22:00,76.0,73.0,29.87,NNW,327,0.0,0.0,90,0.00,,,0.10,,2013-11-20 07:22:00,
2013-11-20 02:42:00,76.0,73.0,29.87,NNW,327,0.0,0.0,90,0.00,,,0.10,,2013-11-20 07:42:00,
2013-11-20 02:52:00,76.0,73.0,29.88,NNW,327,0.0,0.0,91,0.00,,,0.10,,2013-11-20 07:52:00,
2013-11-20 03:22:00,75.0,72.0,29.87,NNW,327,0.0,0.0,90,0.00,,,0.10,,2013-11-20 08:22:00,
2013-11-20 03:42:00,76.0,73.0,29.87,NNW,327,0.0,0.0,91,0.00,,,0.10,,2013-11-20 08:42:00,
2013-11-20 03:52:00,76.0,74.0,29.87,NNW,327,1.0,8.0,92,0.00,,,0.10,,2013-11-20 08:52:00,
2013-11-20 04:13:00,76.0,74.0,29.88,NNW,327,0.0,1.0,92,0.00,,,0.10,,2013-11-20 09:13:00,
2013-11-20 04:22:00,76.0,74.0,29.88,NNW,327,0.0,0.0,93,0.00,,,0.10,,2013-11-20 09:22:00,
2013-11-20 04:54:00,76.0,74.0,29.89,NNW,327,0.0,0.0,93,0.00,,,0.10,,2013-11-20 09:54:00,
2013-11-20 05:13:00,76.0,74.0,29.88,NNW,327,0.0,0.0,93,0.00,,,0.10,,2013-11-20 10:13:00,
2013-11-20 05:23:00,76.0,74.0,29.89,NNW,327,0.0,0.0,93,0.00,,,0.10,,2013-11-20 10:23:00,
2013-11-20 05:43:00,76.0,74.0,29.90,NNW,327,0.0,0.0,93,0.00,,,0.10,,2013-11-20 10:43:00,
2013-11-20 05:53:00,76.0,74.0,29.90,NNW,327,0.0,0.0,93,0.00,,,0.10,,2013-11-20 10:53:00,
2013-11-20 06:22:00,76.0,74.0,29.92,NNW,327,0.0,6.0,94,0.00,,,0.10,,2013-11-20 11:22:00,
2013-11-20 06:43:00,76.0,74.0,29.91,NNW,327,1.0,8.0,94,0.00,,,0.10,,2013-11-20 11:43:00,
2013-11-20 06:52:00,76.0,74.0,29.92,NNW,329,5.0,8.0,93,0.00,,,0.10,,2013-11-20 11:52:00,
2013-11-20 07:11:00,76.0,74.0,29.92,NNW,329,0.0,6.0,94,0.00,,,0.10,,2013-11-20 12:11:00,
2013-11-20 07:22:00,76.0,74.0,29.93,NNW,329,0.0,0.0,94,0.00,,,0.10,,2013-11-20 12:22:00,
2013-11-20 07:42:00,76.0,74.0,29.93,NNW,329,0.0,0.0,94,0.00,,,0.10,,2013-11-20 12:42:00,
2013-11-20 07:52:00,76.0,74.0,29.93,NNW,329,0.0,6.0,94,0.00,,,0.10,,2013-11-20 12:52:00,
2013-11-20 08:11:00,76.0,74.0,29.94,NNW,329,0.0,0.0,94,0.00,,,0.10,,2013-11-20 13:11:00,
2013-11-20 08:22:00,76.0,74.0,29.94,NNW,329,0.0,0.0,94,0.00,,,0.10,,2013-11-20 13:22:00,
2013-11-20 08:42:00,77.0,75.0,29.94,NNW,329,0.0,0.0,94,0.00,,,0.10,,2013-11-20 13:42:00,
2013-11-20 08:52:00,77.0,75.0,29.95,NNW,329,0.0,0.0,93,0.00,,,0.10,,2013-11-20 13:52:00,
2013-11-20 09:12:00,77.0,75.0,29.95,NNW,329,0.0,0.0,93,0.00,,,0.10,,2013-11-20 14:12:00,
2013-11-20 09:22:00,78.0,75.0,29.96,NNW,329,1.0,5.0,90,0.00,,,0.10,,2013-11-20 14:22:00,
2013-11-20 09:42:00,78.0,74.0,29.96,NNW,328,0.0,10.0,87,0.00,,,0.10,,2013-11-20 14:42:00,
2013-11-20 09:52:00,81.0,74.0,29.97,North,360,0.0,7.0,79,0.00,,,0.10,,2013-11-20 14:52:00,
2013-11-20 10:11:00,81.0,73.0,29.97,NE,44,0.0,8.0,76,0.00,,,0.10,,2013-11-20 15:11:00,
2013-11-20 10:22:00,82.0,73.0,29.97,ENE,77,3.0,11.0,74,0.00,,,0.00,,2013-11-20 15:22:00,
2013-11-20 10:43:00,82.0,73.0,29.97,SE,145,2.0,11.0,74,0.00,,,0.00,,2013-11-20 15:43:00,
2013-11-20 10:54:00,82.0,73.0,29.97,SE,145,3.0,9.0,75,0.00,,,0.00,,2013-11-20 15:54:00,
2013-11-20 11:23:00,82.0,73.0,29.99,SSE,148,0.0,11.0,74,0.00,,,0.00,,2013-11-20 16:23:00,
2013-11-20 11:43:00,83.0,74.0,29.98,SSE,151,1.0,7.0,74,0.00,,,0.00,,2013-11-20 16:43:00,
2013-11-20 11:52:00,83.0,73.0,29.97,SSE,150,0.0,10.0,73,0.00,,,0.00,,2013-11-20 16:52:00,
2013-11-20 12:22:00,83.0,73.0,29.96,SSE,150,0.0,5.0,73,0.00,,,0.00,,2013-11-20 17:22:00,
2013-11-20 12:42:00,83.0,74.0,29.95,SE,145,0.0,11.0,74,0.00,,,0.00,,2013-11-20 17:42:00,
2013-11-20 12:52:00,83.0,73.0,29.94,SSE,150,0.0,8.0,72,0.00,,,0.00,,2013-11-20 17:52:00,
2013-11-20 13:12:00,83.0,73.0,29.94,SSE,149,1.0,7.0,73,0.00,,,0.00,,2013-11-20 18:12:00,
2013-11-20 13:22:00,83.0,73.0,29.93,SSE,150,0.0,8.0,71,0.00,,,0.00,,2013-11-20 18:22:00,
2013-11-20 13:43:00,83.0,73.0,29.93,SSE,150,2.0,8.0,72,0.00,,,0.00,,2013-11-20 18:43:00,
2013-11-20 13:52:00,83.0,73.0,29.92,SSE,150,1.0,8.0,72,0.00,,,0.00,,2013-11-20 18:52:00,
2013-11-20 14:22:00,83.0,73.0,29.91,SSE,151,1.0,10.0,72,0.00,,,0.00,,2013-11-20 19:22:00,
2013-11-20 14:42:00,82.0,72.0,29.91,SSE,160,1.0,9.0,73,0.00,,,0.00,,2013-11-20 19:42:00,
2013-11-20 14:52:00,82.0,72.0,29.91,SSE,159,4.0,7.0,73,0.00,,,0.00,,2013-11-20 19:52:00,
2013-11-20 15:11:00,82.0,72.0,29.91,SSE,160,1.0,7.0,72,0.00,,,0.00,,2013-11-20 20:11:00,
2013-11-20 15:22:00,82.0,72.0,29.90,SSE,160,0.0,8.0,73,0.00,,,0.00,,2013-11-20 20:22:00,
2013-11-20 15:42:00,82.0,72.0,29.91,SSE,159,1.0,6.0,73,0.00,,,0.00,,2013-11-20 20:42:00,
2013-11-20 15:52:00,82.0,72.0,29.91,SSE,159,4.0,7.0,73,0.00,,,0.00,,2013-11-20 20:52:00,
2013-11-20 16:22:00,82.0,73.0,29.92,SSE,159,1.0,6.0,74,0.00,,,0.00,,2013-11-20 21:22:00,
2013-11-20 16:43:00,82.0,73.0,29.92,SSE,159,0.0,1.0,74,0.00,,,0.00,,2013-11-20 21:43:00,
2013-11-20 16:53:00,82.0,73.0,29.93,SSE,160,0.0,0.0,74,0.00,,,0.00,,2013-11-20 21:53:00,
2013-11-20 17:13:00,82.0,73.0,29.93,SSE,160,0.0,0.0,74,0.00,,,0.00,,2013-11-20 22:13:00,
2013-11-20 17:23:00,81.0,72.0,29.93,SSE,160,0.0,0.0,75,0.00,,,0.00,,2013-11-20 22:23:00,
2013-11-20 17:42:00,81.0,72.0,29.94,SSE,159,0.0,0.0,75,0.00,,,0.00,,2013-11-20 22:42:00,
2013-11-20 17:53:00,80.0,72.0,29.94,SSE,159,0.0,0.0,77,0.00,,,0.00,,2013-11-20 22:53:00,
2013-11-20 18:22:00,80.0,72.0,29.95,SSE,160,0.0,0.0,78,0.00,,,0.00,,2013-11-20 23:22:00,
2013-11-20 18:43:00,79.0,72.0,29.95,SSE,159,0.0,0.0,78,0.00,,,0.00,,2013-11-20 23:43:00,
2013-11-20 18:53:00,79.0,72.0,29.96,SSE,160,0.0,0.0,78,0.00,,,0.00,,2013-11-20 23:53:00,
2013-11-20 19:11:00,79.0,72.0,29.96,SSE,159,0.0,0.0,78,0.00,,,0.00,,2013-11-21 00:11:00,
2013-11-20 19:22:00,79.0,72.0,29.97,SSE,159,0.0,0.0,78,0.00,,,0.00,,2013-11-21 00:22:00,
2013-11-20 19:42:00,79.0,72.0,29.97,SSE,159,0.0,5.0,78,0.00,,,0.00,,2013-11-21 00:42:00,
2013-11-20 19:52:00,79.0,72.0,29.98,SSE,159,0.0,0.0,78,0.00,,,0.00,,2013-11-21 00:52:00,
2013-11-20 20:11:00,79.0,72.0,29.98,SSE,159,0.0,0.0,78,0.00,,,0.00,,2013-11-21 01:11:00,
2013-11-20 20:22:00,79.0,72.0,29.98,SSE,159,0.0,0.0,79,0.00,,,0.00,,2013-11-21 01:22:00,
2013-11-20 20:42:00,79.0,72.0,29.98,SSE,159,0.0,0.0,79,0.00,,,0.00,,2013-11-21 01:42:00,
2013-11-20 20:52:00,79.0,72.0,29.99,SSE,155,0.0,9.0,79,0.00,,,0.00,,2013-11-21 01:52:00,
2013-11-20 21:22:00,79.0,72.0,30.00,SE,146,0.0,8.0,79,0.00,,,0.00,,2013-11-21 02:22:00,
2013-11-20 22:22:00,79.0,72.0,30.00,SE,143,0.0,5.0,79,0.00,,,0.00,,2013-11-21 03:22:00,
2013-11-20 22:43:00,79.0,72.0,30.00,SE,144,1.0,7.0,80,0.00,,,0.00,,2013-11-21 03:43:00,
2013-11-20 22:54:00,79.0,72.0,30.01,SE,143,0.0,6.0,79,0.00,,,0.00,,2013-11-21 03:54:00,
2013-11-20 23:13:00,79.0,72.0,30.00,SE,143,1.0,7.0,79,0.00,,,0.00,,2013-11-21 04:13:00,
2013-11-20 23:23:00,79.0,72.0,30.00,SE,143,3.0,9.0,80,0.00,,,0.00,,2013-11-21 04:23:00,
2013-11-20 23:53:00,79.0,72.0,29.99,SE,142,0.0,7.0,79,0.00,,,0.00,,2013-11-21 04:53:00,